Location: Boulder, CO
(40.0083°N, 105.2472°W)
Time: 05:52:08
(UTC-07:00)

SORCE - Visible Passes

Search period start: 10 February 2016 00:00
Search period end: 20 February 2016 00:00
Orbit: 587 x 620 km, 40.0° (Epoch: 09 February)

Date Brightness Start Highest point End Pass type
(mag) Time Alt. Az. Time Alt. Az. Time Alt. Az.
10 Feb 8.7 05:04:11 10° SSE 05:06:02 12° SE 05:07:53 10° ESE visible
11 Feb 8.1 05:14:00 11° SSW 05:17:10 21° SSE 05:20:30 10° E visible
12 Feb 7.4 05:25:24 15° SSW 05:28:23 33° SSE 05:32:21 10° E visible
13 Feb 8.8 03:59:54 12° ESE 03:59:54 12° ESE 04:00:47 10° ESE visible
13 Feb 6.7 05:36:38 18° SW 05:39:41 49° SSE 05:43:57 10° E visible
14 Feb 8.3 04:11:01 20° ESE 04:11:01 20° ESE 04:13:04 10° E visible
14 Feb 6.2 05:47:45 17° WSW 05:51:02 67° SSE 05:55:26 10° E visible
15 Feb 7.6 04:22:02 30° ESE 04:22:02 30° ESE 04:24:50 10° E visible
15 Feb 6.0 05:58:46 14° WSW 06:02:27 83° S 06:06:54 10° E visible
16 Feb 6.9 04:32:58 45° ESE 04:32:58 45° ESE 04:36:23 10° E visible
16 Feb 6.0 06:09:42 11° W 06:13:55 89° NNE 06:18:21 10° E visible
17 Feb 6.1 04:43:50 67° SE 04:43:50 67° SE 04:47:51 10° E visible
17 Feb 6.0 06:20:57 10° W 06:25:22 90° WSW 06:29:49 10° E visible
18 Feb 5.8 04:54:40 80° WSW 04:54:53 86° S 04:59:18 10° E visible
19 Feb 9.2 03:28:45 10° E 03:28:45 10° E 03:28:49 10° E visible
19 Feb 5.8 05:05:29 57° W 05:06:20 88° N 05:10:45 10° E visible
